Weather History for Portage Glacier, AK

Change the Weather History Date:

Sunday, July 7, 2013

  Actual Average Record
Temperature  
Mean Temperature 52 °F -  
Max Temperature 55 °F - - ()
Min Temperature 48 °F - - ()
Degree Days  
Heating Degree Days 14    
Growing Degree Days 2 (Base 50)    
Moisture  
Dew Point 49 °F    
Average Humidity 88    
Maximum Humidity 97    
Minimum Humidity 80    
Precipitation  
Precipitation 1.91 in - - ()
Sea Level Pressure  
Sea Level Pressure 29.69 in    
Wind  
Wind Speed 17 mph (ESE)    
Max Wind Speed 31 mph    
Max Gust Speed 52 mph    
Visibility 4 miles    
Events Rain    
T = Trace of Precipitation, MM = Missing Value Source: NWS Daily Summary

Daily Weather History Graph

Daily Weather History Graph

Search for Another Location

Airport:

Trip Planner

Search our weather history database for the weather conditions in past years. The results will help you decide how hot, cold, wet, or windy it might be!

Date:

Astronomy

Jul. 07, 2013 Rise Set
Actual Time 4:37 AM AKDT 11:22 PM AKDT
Civil Twilight 2:52 AM AKDT 1:04 AM AKDT
Nautical Twilight Sun does not rise Sun does not rise
Astronomical Twilight Sun does not rise Sun does not rise
Moon 4:49 AM AKDT (7/7) 10:18 PM AKDT (7/7)
Length of Visible Light 22h 11m
Length of Day
18h 44m
Waning Crescent, 0% of the Moon is Illuminated
Jul 7
Waning Crescent
Jul 7
New
Jul 15
First Quarter
Jul 22
Full
Jul 29
Last Quarter

Hourly Weather History & Observations

Time (AKDT) Temp. Dew Point Humidity Pressure Visibility Wind Dir Wind Speed Gust Speed Precip Events Conditions
12:37 AM 53.1 °F 48.9 °F 86% 29.81 in 2.0 mi ESE 19.6 mph 38.0 mph 0.06 in Rain Rain
12:50 AM 53.6 °F 48.2 °F 82% 29.81 in 2.0 mi East 21.9 mph 39.1 mph 0.10 in Rain Rain
12:53 AM 53.1 °F 48.9 °F 86% 29.81 in 2.0 mi East 18.4 mph 39.1 mph 0.11 in Rain Rain
1:07 AM 53.1 °F 48.9 °F 86% 29.78 in 3.0 mi ESE 19.6 mph 38.0 mph 0.04 in Rain Rain
1:26 AM 53.1 °F 48.9 °F 86% 29.79 in 2.0 mi East 23.0 mph 36.8 mph 0.08 in Rain Rain
1:40 AM 53.1 °F 48.9 °F 86% 29.78 in 3.0 mi East 18.4 mph 44.9 mph 0.13 in Rain Rain
1:53 AM 53.1 °F 48.0 °F 83% 29.77 in 4.0 mi SE 24.2 mph 42.6 mph 0.17 in Rain Rain
2:04 AM 53.1 °F 48.9 °F 86% 29.78 in 4.0 mi East 23.0 mph 38.0 mph 0.04 in Rain Rain
2:37 AM 54.0 °F 48.0 °F 80% 29.76 in 4.0 mi SE 13.8 mph 39.1 mph 0.16 in Rain Rain
2:53 AM 53.1 °F 48.9 °F 86% 29.75 in 3.0 mi East 31.1 mph 42.6 mph 0.22 in Rain Rain
3:53 AM 53.1 °F 48.0 °F 83% 29.72 in 3.0 mi ESE 25.3 mph 51.8 mph 0.20 in Rain Rain
4:53 AM 53.1 °F 48.0 °F 83% 29.69 in 4.0 mi SE 12.7 mph 39.1 mph 0.22 in Rain Rain
5:01 AM 53.1 °F 48.0 °F 83% 29.69 in 5.0 mi East 27.6 mph 42.6 mph 0.02 in Rain Rain
5:53 AM 53.1 °F 48.0 °F 83% 29.68 in 4.0 mi East 19.6 mph 34.5 mph 0.16 in Rain Rain
6:25 AM 53.1 °F 48.0 °F 83% 29.68 in 2.5 mi East 24.2 mph 39.1 mph 0.09 in Rain Rain
6:37 AM 54.0 °F 48.0 °F 80% 29.67 in 3.0 mi ESE 20.7 mph 40.3 mph 0.10 in Rain Light Rain
6:46 AM 53.1 °F 48.0 °F 83% 29.67 in 2.5 mi ESE 21.9 mph 40.3 mph 0.13 in Rain Rain
6:53 AM 53.1 °F 48.0 °F 83% 29.67 in 3.0 mi East 18.4 mph 35.7 mph 0.15 in Rain Rain
7:09 AM 53.1 °F 48.0 °F 83% 29.66 in 2.5 mi ESE 21.9 mph 29.9 mph 0.05 in Rain Rain
7:53 AM 53.1 °F 48.0 °F 83% 29.67 in 2.5 mi ESE 15.0 mph 36.8 mph 0.18 in Rain Rain
8:25 AM 53.1 °F 48.0 °F 83% 29.66 in 3.0 mi East 16.1 mph 36.8 mph 0.09 in Rain Rain
8:46 AM 52.0 °F 48.0 °F 86% 29.66 in 2.0 mi ESE 16.1 mph 29.9 mph 0.15 in Rain Rain
8:53 AM 52.0 °F 48.0 °F 86% 29.65 in 2.0 mi ESE 17.3 mph 31.1 mph 0.16 in Rain Rain
9:53 AM 51.1 °F 48.0 °F 89% 29.65 in 3.0 mi ESE 19.6 mph 31.1 mph 0.15 in Rain Rain
10:53 AM 50.0 °F 48.0 °F 93% 29.65 in 4.0 mi SE 13.8 mph 27.6 mph 0.05 in Rain Light Rain
11:12 AM 51.1 °F 48.9 °F 92% 29.64 in 4.0 mi SE 15.0 mph 25.3 mph 0.01 in Rain Light Rain
11:27 AM 51.1 °F 48.9 °F 92% 29.65 in 2.5 mi SE 11.5 mph 24.2 mph 0.02 in Rain Light Rain
11:37 AM 50.0 °F 48.9 °F 96% 29.65 in 1.8 mi ESE 15.0 mph 27.6 mph 0.03 in Rain Light Rain
11:53 AM 51.1 °F 48.9 °F 92% 29.65 in 1.8 mi SSE 9.2 mph 23.0 mph 0.04 in Rain Light Rain
12:53 PM 51.1 °F 50.0 °F 96% 29.65 in 2.0 mi SE 12.7 mph 21.9 mph 0.03 in Rain Light Rain
1:01 PM 52.0 °F 48.9 °F 89% 29.65 in 2.0 mi SE 8.1 mph 21.9 mph 0.01 in Rain Light Rain
1:37 PM 52.0 °F 50.0 °F 93% 29.65 in 3.0 mi SSE 13.8 mph 24.2 mph 0.01 in Rain Light Rain
1:44 PM 51.1 °F 50.0 °F 96% 29.66 in 2.5 mi SE 12.7 mph 25.3 mph 0.01 in Rain Light Rain
1:53 PM 52.0 °F 50.0 °F 93% 29.66 in 2.5 mi SE 10.4 mph 23.0 mph 0.01 in Rain Light Rain
2:53 PM 52.0 °F 51.1 °F 97% 29.67 in 2.0 mi SE 10.4 mph 25.3 mph 0.02 in Rain Light Rain
3:05 PM 53.1 °F 51.1 °F 93% 29.67 in 4.0 mi ESE 12.7 mph 23.0 mph 0.00 in Rain Light Rain
3:26 PM 52.0 °F 51.1 °F 97% 29.67 in 2.0 mi SE 10.4 mph 20.7 mph 0.00 in Rain Light Rain
3:53 PM 52.0 °F 50.0 °F 93% 29.67 in 1.8 mi SE 9.2 mph 20.7 mph 0.02 in Rain Light Rain
4:10 PM 53.1 °F 50.0 °F 89% 29.67 in 3.0 mi East 12.7 mph 25.3 mph 0.02 in Rain Light Rain
4:14 PM 53.1 °F 50.0 °F 89% 29.67 in 2.5 mi SE 9.2 mph 25.3 mph 0.02 in Rain Light Rain
4:30 PM 55.0 °F 50.0 °F 83% 29.67 in 4.0 mi Variable 6.9 mph 23.0 mph 0.02 in Rain Light Rain
4:53 PM 54.0 °F 48.9 °F 83% 29.68 in 5.0 mi East 10.4 mph 24.2 mph 0.02 in Rain Light Rain
5:53 PM 54.0 °F 48.9 °F 83% 29.68 in 10.0 mi ESE 10.4 mph 23.0 mph 0.00 in   Overcast
6:53 PM 52.0 °F 48.0 °F 86% 29.69 in 10.0 mi SE 8.1 mph 18.4 mph 0.00 in   Overcast
7:36 PM 51.1 °F 48.9 °F 92% 29.68 in 9.0 mi SE 8.1 mph - 0.00 in   Overcast
7:53 PM 50.0 °F 48.0 °F 93% 29.69 in 10.0 mi ESE 6.9 mph - 0.00 in   Overcast
8:53 PM 52.0 °F 46.0 °F 80% 29.69 in 10.0 mi SE 6.9 mph 17.3 mph N/A   Overcast
9:00 PM 50.0 °F 46.9 °F 89% 29.69 in 10.0 mi SE 6.9 mph - N/A   Overcast
9:53 PM 48.9 °F 46.0 °F 90% 29.71 in 10.0 mi ESE 5.8 mph - N/A   Overcast
10:53 PM 48.0 °F 46.0 °F 93% 29.71 in 10.0 mi SE 8.1 mph - 0.00 in   Overcast
11:38 PM 48.9 °F 46.0 °F 90% 29.71 in 10.0 mi East 4.6 mph - N/A   Scattered Clouds
11:53 PM 48.0 °F 45.0 °F 89% 29.71 in 10.0 mi East 8.1 mph - N/A   Scattered Clouds